Rome Ciampino, Italy

7:15 PM CET on February 19, 2018 (GMT +0100)
Ciampino

Weather History for LIRA - October, 2014

Change the Weather History Date:

Tuesday, October 14, 2014

  Actual Average Record
Temperature  
Mean Temperature 73 °F -  
Max Temperature 81 °F 66 °F 84 °F (2000)
Min Temperature 65 °F 48 °F 44 °F (1998)
Cooling Degree Days 8    
Growing Degree Days 23 (Base 50)    
Moisture  
Dew Point 59 °F    
Average Humidity 61    
Maximum Humidity 88    
Minimum Humidity 27    
Precipitation  
Precipitation 0.00 in 0.14 in - ()
Sea Level Pressure  
Sea Level Pressure 29.86 in    
Wind  
Wind Speed 5 mph ()    
Max Wind Speed 18 mph    
Max Gust Speed -    
Visibility 6.4 miles    
Events      
Averages and records for this station are not official NWS values.
T = Trace of Precipitation, MM = Missing Value Source: Averaged Metar Reports

Daily Weather History Graph

Daily Weather History Graph

Search for Another Location

Airport or City:

Trip Planner

Search our weather history database for the weather conditions in past years. The results will help you decide how hot, cold, wet, or windy it might be!

Date:

Astronomy

Oct. 14, 2014 Rise Set
Actual Time 7:20 AM CEST 6:30 PM CEST
Civil Twilight 6:52 AM CEST 6:58 PM CEST
Nautical Twilight 6:20 AM CEST 7:30 PM CEST
Astronomical Twilight 5:48 AM CEST 8:02 PM CEST
Moon 11:17 PM CEST (10/14) 1:11 PM CEST (10/14)
Length of Visible Light 12h 05m
Length of Day
11h 09m
Waning Gibbous, 63% of the Moon is Illuminated
Oct 14
Waning Gibbous
Oct 15
Last Quarter
Oct 23
New
Oct 31
First Quarter
Nov 6
Full

Hourly Weather History & Observations

Time (CEST) Temp. Heat Index Dew Point Humidity Pressure Visibility Wind Dir Wind Speed Gust Speed Precip Events Conditions
12:15 AM 68.0 °F - 60.8 °F 78% 29.95 in 6.2 mi Calm Calm - N/A   Partly Cloudy
12:45 AM 68.0 °F - 60.8 °F 78% 29.95 in 6.2 mi Calm Calm - N/A   Partly Cloudy
1:15 AM 68.0 °F - 60.8 °F 78% 29.95 in 6.2 mi Calm Calm - N/A   Partly Cloudy
1:55 AM 68.0 °F - 60.8 °F 78% 29.95 in 6.2 mi Calm Calm - N/A   Partly Cloudy
2:00 AM 68 °F - 61 °F 72% 29.95 in 7 mi Calm Calm - -   Scattered Clouds
2:15 AM 68.0 °F - 62.6 °F 83% 29.95 in 6.2 mi Calm Calm - N/A   Partly Cloudy
2:45 AM 68.0 °F - 62.6 °F 83% 29.92 in 6.2 mi ESE 4.6 mph - N/A   Partly Cloudy
3:15 AM 68.0 °F - 62.6 °F 83% 29.92 in - Calm Calm - N/A   Clear
3:45 AM 66.2 °F - 62.6 °F 88% 29.92 in - Calm Calm - N/A   Clear
4:15 AM 66.2 °F - 62.6 °F 88% 29.92 in - Calm Calm - N/A   Clear
4:45 AM 66.2 °F - 62.6 °F 88% 29.92 in 6.2 mi Calm Calm - N/A   Partly Cloudy
5:00 AM 66 °F - 62 °F 82% 29.93 in 6 mi Calm Calm - -   Scattered Clouds
5:15 AM 66.2 °F - 62.6 °F 88% 29.92 in 6.2 mi Calm Calm - N/A   Partly Cloudy
5:45 AM 66.2 °F - 60.8 °F 83% 29.92 in 6.2 mi Calm Calm - N/A   Partly Cloudy
6:15 AM 66.2 °F - 60.8 °F 83% 29.89 in 6.2 mi Calm Calm - N/A   Scattered Clouds
6:45 AM 66.2 °F - 62.6 °F 88% 29.89 in 6.2 mi Calm Calm - N/A   Scattered Clouds
7:15 AM 68.0 °F - 60.8 °F 78% 29.89 in 6.2 mi Calm Calm - N/A   Scattered Clouds
7:45 AM 71.6 °F - 64.4 °F 78% 29.89 in 6.2 mi ESE 8.1 mph - N/A   Partly Cloudy
8:00 AM 71 °F - 65 °F 76% 29.90 in 6 mi ESE 8.1 mph - -   Partly Cloudy
8:15 AM 71.6 °F - 64.4 °F 78% 29.89 in 6.2 mi ESE 5.8 mph - N/A   Scattered Clouds
8:45 AM 71.6 °F - 64.4 °F 78% 29.89 in 6.2 mi SE 8.1 mph - N/A   Partly Cloudy
9:15 AM 73.4 °F - 66.2 °F 78% 29.89 in 6.2 mi SE 18.4 mph - N/A   Partly Cloudy
9:45 AM 75.2 °F - 66.2 °F 73% 29.89 in 6.2 mi SE 15.0 mph - N/A   Partly Cloudy
10:15 AM 75.2 °F - 64.4 °F 69% 29.89 in 6.2 mi SSE 12.7 mph - N/A   Partly Cloudy
10:45 AM 77.0 °F - 64.4 °F 65% 29.89 in 6.2 mi SSE 16.1 mph - N/A   Scattered Clouds
11:00 AM 76 °F - 65 °F 60% 29.89 in 6 mi SSE 16.1 mph - -   Scattered Clouds
11:15 AM 77.0 °F - 64.4 °F 65% 29.89 in 6.2 mi SSE 17.3 mph - N/A   Scattered Clouds
11:45 AM 77.0 °F - 64.4 °F 65% 29.92 in 6.2 mi SSE 15.0 mph - N/A   Scattered Clouds
12:15 PM 77.0 °F - 64.4 °F 65% 29.89 in 6.2 mi SSE 16.1 mph - N/A   Scattered Clouds
12:45 PM 78.8 °F - 64.4 °F 61% 29.89 in 6.2 mi SSE 16.1 mph - N/A   Scattered Clouds
1:15 PM 78.8 °F - 60.8 °F 54% 29.86 in 6.2 mi South 12.7 mph - N/A   Scattered Clouds
1:45 PM 80.6 °F 81.1 °F 59.0 °F 48% 29.86 in 6.2 mi South 15.0 mph - N/A   Scattered Clouds
2:00 PM 80 °F - 60 °F 40% 29.86 in 9 mi South 15.0 mph - -   Scattered Clouds
2:15 PM 80.6 °F 81.1 °F 59.0 °F 48% 29.83 in 6.2 mi South 12.7 mph - N/A   Scattered Clouds
2:45 PM 80.6 °F 80.8 °F 57.2 °F 45% 29.83 in 6.2 mi SSE 11.5 mph - N/A   Scattered Clouds
3:15 PM 80.6 °F 80.5 °F 55.4 °F 42% 29.83 in 6.2 mi SSE 12.7 mph - N/A   Scattered Clouds
3:45 PM 80.6 °F 80.5 °F 55.4 °F 42% 29.80 in 6.2 mi South 12.7 mph - N/A   Partly Cloudy
4:15 PM 80.6 °F 80.3 °F 53.6 °F 39% 29.80 in 6.2 mi SSE 13.8 mph - N/A   Partly Cloudy
4:45 PM 80.6 °F - 51.8 °F 37% 29.80 in 6.2 mi SSE 17.3 mph - N/A   Scattered Clouds
5:00 PM 80 °F - 52 °F 27% 29.80 in 12 mi SSE 17.3 mph - -   Scattered Clouds
5:15 PM 78.8 °F - 53.6 °F 42% 29.83 in 6.2 mi South 13.8 mph - N/A   Partly Cloudy
5:45 PM 77.0 °F - 51.8 °F 41% 29.83 in 6.2 mi SSE 8.1 mph - N/A   Scattered Clouds
6:15 PM 77.0 °F - 53.6 °F 44% 29.77 in 6.2 mi ESE 10.4 mph - N/A   Scattered Clouds
6:45 PM 77.0 °F - 55.4 °F 47% 29.77 in 6.2 mi SE 6.9 mph - N/A   Scattered Clouds
7:15 PM 75.2 °F - 53.6 °F 47% 29.77 in 6.2 mi ESE 3.5 mph - N/A   Scattered Clouds
7:45 PM 75.2 °F - 53.6 °F 47% 29.80 in 6.2 mi West 3.5 mph - N/A   Scattered Clouds
8:00 PM 75 °F - 54 °F 38% 29.79 in 7 mi West 3.5 mph - -   Partly Cloudy
8:15 PM 75.2 °F - 53.6 °F 47% 29.83 in 6.2 mi SW 4.6 mph - N/A   Scattered Clouds
8:45 PM 75.2 °F - 53.6 °F 47% 29.83 in 6.2 mi SE 4.6 mph - N/A   Scattered Clouds
9:15 PM 73.4 °F - 57.2 °F 57% 29.83 in 6.2 mi Calm Calm - N/A   Scattered Clouds
9:45 PM 73.4 °F - 55.4 °F 53% 29.80 in 6.2 mi ESE 6.9 mph - N/A   Scattered Clouds
10:15 PM 73.4 °F - 51.8 °F 47% 29.80 in 6.2 mi ESE 5.8 mph - N/A   Scattered Clouds
10:45 PM 77.0 °F - 51.8 °F 41% 29.80 in 6.2 mi South 10.4 mph - N/A   Scattered Clouds
11:00 PM 77 °F - 52 °F 31% 29.80 in 7 mi South 10.4 mph - -   Mostly Cloudy
11:15 PM 77.0 °F - 50.0 °F 39% 29.80 in 6.2 mi South 9.2 mph - N/A   Scattered Clouds
11:45 PM 77.0 °F - 51.8 °F 41% 29.77 in 6.2 mi SE 8.1 mph - N/A   Scattered Clouds